Location: Briis
(48.6240°N, 2.1211°E)
Time: 11:07:41
(UTC+00:00)

FALCON 9 DEB - Pass Details

Date: 25 September 2020
Orbit: 426 x 441 km, 53.0° (Epoch: 26 October)

Event Time Altitude Azimuth Distance (km) Brightness Sun altitude
Exits shadow 03:18:31 40° 94° (E) 647 4.3 -23.8°
Drops below altitude 10° 03:20:59 10° 69° (ENE) 1,532 7.0 -23.4°
Sets 03:23:07 0° 66° (ENE) 2,405 8.4 -23.1°
